Date String (YYYY-MM-DD hh:mm:ss) UTC,Instrument flags,Ambient pressure (hPa),Sample flow (lpm),Bypass flow (lpm),Sample temperature (°C),Ambient temperature (°C),ASC tube jacket temperature (°C),LED temperature (°C),Box temperature (°C),Sample RH (%),Span deviation,Mass concentration (μg/m³),Mass concentration (μg/m³),Mass concentration (μg/m³)
DateTimeUTC,F1_M11,P_M11,Q1_M11,Q2_M11,T1_M11,T2_M11,T3_M11,T4_M11,T5_M11,U1_M11,ZSPAN_M11,X0_M11,X2_M11,X1_M11
2022-11-07 13:00:00,,0825.7,4.99,0.00,22.6,22.4,00.0,31.2,24.7,12.5,0000.0,0006.80,0003.15,0002.07
2022-11-07 13:01:00,,0825.8,4.99,0.00,22.6,22.1,00.0,31.2,24.6,12.5,0000.0,0005.79,0003.17,0002.08
2022-11-07 13:02:00,,0825.8,5.00,0.00,22.6,21.9,00.0,31.2,24.6,12.5,0000.0,0005.74,0003.17,0002.09
2022-11-07 13:03:00,,0825.7,5.00,0.00,22.6,21.8,00.0,31.2,24.6,12.5,0000.0,0005.56,0003.17,0002.11
2022-11-07 13:04:00,,0825.7,5.00,0.00,22.6,21.7,00.0,31.3,24.5,12.5,0000.0,0005.89,0003.21,0002.12
2022-11-07 13:05:00,,0825.7,5.00,0.00,22.6,21.6,00.0,31.3,24.5,12.5,0000.0,0006.26,0003.22,0002.12
2022-11-07 13:06:00,,0825.7,5.00,0.00,22.6,21.5,00.0,31.3,24.5,12.6,0000.0,0006.38,0003.20,0002.14
2022-11-07 13:07:00,,0825.7,5.00,0.00,22.6,21.4,00.0,31.3,24.5,12.6,0000.0,0006.43,0003.19,0002.14
2022-11-07 13:08:00,,0825.7,4.99,0.00,22.6,21.3,00.0,31.3,24.4,12.6,0000.0,0006.38,0003.17,0002.15
2022-11-07 13:09:00,,0825.7,5.01,0.00,22.6,21.3,00.0,31.3,24.4,12.6,0000.0,0006.69,0003.20,0002.16
2022-11-07 13:10:00,,0825.9,5.02,0.00,22.5,21.2,00.0,31.3,24.4,12.6,0000.0,0007.35,0003.23,0002.16
2022-11-07 13:11:00,,0826.0,4.98,0.00,22.5,21.1,00.0,31.3,24.4,12.7,0000.0,0007.96,0003.24,0002.16
2022-11-07 13:12:00,,0825.7,5.00,0.00,22.5,21.1,00.0,31.3,24.4,12.7,0000.0,0007.92,0003.21,0002.16
2022-11-07 13:13:00,,0825.7,5.01,0.00,22.5,21.1,00.0,31.3,24.4,12.7,0000.0,0008.02,0003.18,0002.16
2022-11-07 13:14:00,,0825.7,4.99,0.00,22.5,21.1,00.0,31.3,24.3,12.7,0000.0,0008.39,0003.19,0002.15
2022-11-07 13:15:00,,0825.7,4.99,0.00,22.5,21.1,00.0,31.3,24.4,12.7,0000.0,0008.35,0003.13,0002.13
2022-11-07 13:16:00,,0825.7,5.01,0.00,22.5,21.1,00.0,31.3,24.3,12.7,0000.0,0008.06,0003.09,0002.13
2022-11-07 13:17:00,,0825.7,5.01,0.00,22.5,21.0,00.0,31.3,24.3,12.7,0000.0,0008.09,0003.10,0002.13
2022-11-07 13:18:00,,0825.7,5.00,0.00,22.5,21.0,00.0,31.3,24.3,12.7,0000.0,0008.09,0003.12,0002.13
2022-11-07 13:19:00,,0825.7,5.00,0.00,22.4,21.0,00.0,31.3,24.3,12.8,0000.0,0008.01,0003.10,0002.11
2022-11-07 13:20:00,,0825.7,5.00,0.00,22.4,21.0,00.0,31.3,24.2,12.8,0000.0,0007.86,0003.04,0002.09
2022-11-07 13:21:00,,0825.7,5.00,0.00,22.4,21.0,00.0,31.3,24.2,12.8,0000.0,0007.16,0002.98,0002.08
2022-11-07 13:22:00,,0825.7,5.00,0.00,22.4,21.0,00.0,31.3,24.3,12.8,0000.0,0007.46,0003.03,0002.08
2022-11-07 13:23:00,,0825.7,5.00,0.00,22.4,21.0,00.0,31.3,24.3,12.8,0000.0,0007.91,0003.12,0002.08
2022-11-07 13:24:00,,0825.9,4.99,0.00,22.4,21.0,00.0,31.3,24.2,12.8,0000.0,0007.84,0003.15,0002.08
2022-11-07 13:25:00,,0825.8,4.99,0.00,22.4,21.0,00.0,31.3,24.2,12.8,0000.0,0007.94,0003.17,0002.09
2022-11-07 13:26:00,,0825.8,5.00,0.00,22.4,21.0,00.0,31.2,24.2,12.8,0000.0,0007.97,0003.22,0002.11
2022-11-07 13:27:00,,0826.1,5.02,0.00,22.4,21.0,00.0,31.2,24.2,12.8,0000.0,0008.93,0003.26,0002.13
2022-11-07 13:28:00,,0825.9,4.99,0.00,22.4,21.0,00.0,31.2,24.2,12.8,0000.0,0009.19,0003.28,0002.12
2022-11-07 13:29:00,,0826.2,4.99,0.00,22.4,21.0,00.0,31.2,24.2,12.8,0000.0,0009.20,0003.29,0002.12
2022-11-07 13:30:00,,0825.8,5.00,0.00,22.4,21.0,00.0,31.2,24.2,12.7,0000.0,0009.70,0003.33,0002.11
2022-11-07 13:31:00,,0826.0,5.01,0.00,22.4,20.9,00.0,31.2,24.2,12.7,0000.0,0010.41,0003.37,0002.12
2022-11-07 13:32:00,,0825.8,5.01,0.00,22.4,21.1,00.0,31.2,24.3,12.7,0000.0,0010.92,0003.43,0002.12
2022-11-07 13:33:00,,0825.9,5.00,0.00,22.4,21.7,00.0,31.1,24.4,12.7,0000.0,0011.06,0003.45,0002.11
2022-11-07 13:34:00,,0825.7,5.01,0.00,22.5,22.3,00.0,31.2,24.6,12.7,0000.0,0011.37,0003.48,0002.11
2022-11-07 13:35:00,,0826.0,4.98,0.00,22.6,22.2,00.0,31.2,24.6,12.6,0000.0,0011.38,0003.51,0002.12
2022-11-07 13:36:00,,0825.8,5.00,0.00,22.6,22.0,00.0,31.2,24.6,12.6,0000.0,0011.01,0003.52,0002.11
2022-11-07 13:37:00,,0825.7,5.01,0.00,22.6,21.8,00.0,31.2,24.6,12.6,0000.0,0011.18,0003.54,0002.10
2022-11-07 13:38:00,,0825.8,5.00,0.00,22.6,21.6,00.0,31.3,24.5,12.6,0000.0,0011.01,0003.57,0002.10
2022-11-07 13:39:00,,0826.0,5.01,0.00,22.6,21.5,00.0,31.3,24.5,12.7,0000.0,0010.82,0003.61,0002.13
2022-11-07 13:40:00,,0826.2,5.01,0.00,22.6,21.4,00.0,31.3,24.5,12.6,0000.0,0011.74,0003.65,0002.13
2022-11-07 13:41:00,,0825.8,5.00,0.00,22.6,21.4,00.0,31.3,24.4,12.6,0000.0,0012.12,0003.70,0002.15
2022-11-07 13:42:00,,0826.2,4.99,0.00,22.6,21.3,00.0,31.3,24.4,12.6,0000.0,0012.40,0003.78,0002.17
2022-11-07 13:43:00,,0825.8,4.99,0.00,22.6,21.3,00.0,31.3,24.4,12.6,0000.0,0014.01,0003.97,0002.19
2022-11-07 13:44:00,,0825.8,5.00,0.00,22.5,21.3,00.0,31.3,24.4,12.6,0000.0,0014.84,0004.10,0002.21
2022-11-07 13:45:00,,0826.0,5.01,0.00,22.5,21.2,00.0,31.3,24.4,12.7,0000.0,0015.41,0004.20,0002.25
2022-11-07 13:46:00,,0825.8,4.99,0.00,22.5,21.2,00.0,31.3,24.4,12.7,0000.0,0016.83,0004.25,0002.27
2022-11-07 13:47:00,,0826.0,5.00,0.00,22.5,21.2,00.0,31.3,24.4,12.7,0000.0,0018.25,0004.41,0002.30
2022-11-07 13:48:00,,0826.0,5.00,0.00,22.5,21.2,00.0,31.3,24.3,12.7,0000.0,0019.01,0004.53,0002.32
2022-11-07 13:49:00,,0825.8,5.00,0.00,22.5,21.1,00.0,31.3,24.4,12.7,0000.0,0019.48,0004.67,0002.34
2022-11-07 13:50:00,,0825.7,5.00,0.00,22.5,21.1,00.0,31.3,24.3,12.8,0000.0,0021.28,0004.84,0002.37
2022-11-07 13:51:00,,0825.8,5.00,0.00,22.5,21.1,00.0,31.3,24.3,12.8,0000.0,0021.75,0004.96,0002.41
2022-11-07 13:52:00,,0825.9,5.01,0.00,22.5,21.1,00.0,31.3,24.3,12.8,0000.0,0021.70,0005.04,0002.43
2022-11-07 13:53:00,,0826.0,5.01,0.00,22.4,21.1,00.0,31.3,24.3,12.8,0000.0,0021.32,0005.03,0002.42
2022-11-07 13:54:00,,0825.9,5.00,0.00,22.4,21.0,00.0,31.3,24.3,12.8,0000.0,0019.79,0004.92,0002.41
2022-11-07 13:55:00,,0825.8,5.00,0.00,22.4,21.0,00.0,31.3,24.3,12.8,0000.0,0018.68,0004.89,0002.41
2022-11-07 13:56:00,,0825.9,4.99,0.00,22.4,21.0,00.0,31.3,24.3,12.8,0000.0,0018.19,0004.75,0002.36
2022-11-07 13:57:00,,0826.0,5.00,0.00,22.4,21.0,00.0,31.3,24.3,12.8,0000.0,0017.43,0004.64,0002.32
2022-11-07 13:58:00,,0826.0,4.99,0.00,22.4,21.0,00.0,31.3,24.3,12.8,0000.0,0016.92,0004.49,0002.28
2022-11-07 13:59:00,,0825.9,5.00,0.00,22.4,21.0,00.0,31.3,24.3,12.8,0000.0,0017.19,0004.40,0002.26
